DAL726 KATL-KBOS

Flight info

Callsign DAL726
Flight time 1h 54m
Altitude 37000
Route PLMMR3 BURGG Q22 RBV Q419 JFK ROBUC3
Aircraft B772/H-L/C

Departure

Time 2026-05-06 22:15
Airport Hartsfield Jackson Atlanta International Airport (KATL)

Arrival

Time 2026-05-07 00:09
Airport Boston Logan International Airport (KBOS)
Time Latitude Longitude Altitude Speed Heading
2026-05-06 22:00 33.63897 -84.43977 1049 ft 0 kts 90°
2026-05-06 22:02 33.63897 -84.43983 1040 ft 2 kts 90°
2026-05-06 22:03 33.63898 -84.44002 1040 ft 2 kts 90°
2026-05-06 22:03 33.63899 -84.44022 1040 ft 2 kts 111°
2026-05-06 22:03 33.63907 -84.44038 1040 ft 2 kts 140°
2026-05-06 22:03 33.63920 -84.44050 1040 ft 2 kts 161°
2026-05-06 22:04 33.63930 -84.44053 1040 ft 0 kts 178°
2026-05-06 22:09 33.63909 -84.44052 1040 ft 12 kts 177°
2026-05-06 22:09 33.63827 -84.44050 1040 ft 12 kts 180°
2026-05-06 22:09 33.63744 -84.44049 1040 ft 12 kts 179°
2026-05-06 22:10 33.63674 -84.44013 1040 ft 12 kts 115°
2026-05-06 22:10 33.63668 -84.43888 1040 ft 18 kts 95°
2026-05-06 22:10 33.63666 -84.43741 1040 ft 18 kts 90°
2026-05-06 22:10 33.63666 -84.43551 1040 ft 27 kts 90°
2026-05-06 22:11 33.63666 -84.43306 1039 ft 30 kts 90°
2026-05-06 22:11 33.63666 -84.43056 1039 ft 30 kts 90°
2026-05-06 22:11 33.63665 -84.42806 1040 ft 30 kts 92°
2026-05-06 22:11 33.63656 -84.42556 1040 ft 30 kts 90°
2026-05-06 22:12 33.63656 -84.42306 1040 ft 30 kts 90°
2026-05-06 22:12 33.63656 -84.42056 1040 ft 30 kts 90°
2026-05-06 22:12 33.63656 -84.41806 1039 ft 30 kts 90°
2026-05-06 22:12 33.63656 -84.41556 1039 ft 30 kts 90°
2026-05-06 22:13 33.63656 -84.41306 1039 ft 30 kts 90°
2026-05-06 22:13 33.63656 -84.41056 1040 ft 30 kts 90°
2026-05-06 22:13 33.63656 -84.40819 1040 ft 17 kts 92°
2026-05-06 22:13 33.63570 -84.40746 1040 ft 17 kts 176°
2026-05-06 22:14 33.63477 -84.40807 1040 ft 19 kts 259°
2026-05-06 22:14 33.63470 -84.41204 1039 ft 85 kts 270°
2026-05-06 22:14 33.63470 -84.42213 1042 ft 157 kts 270°
2026-05-06 22:14 33.63462 -84.43713 1286 ft 200 kts 268°
2026-05-06 22:15 33.63416 -84.45494 1661 ft 222 kts 262°
2026-05-06 22:15 33.62915 -84.47364 2094 ft 249 kts 241°
2026-05-06 22:15 33.61932 -84.49008 3739 ft 230 kts 235°
2026-05-06 22:15 33.61337 -84.50639 5132 ft 203 kts 252°
2026-05-06 22:16 33.60745 -84.52178 5456 ft 214 kts 226°
2026-05-06 22:16 33.59381 -84.53043 5659 ft 236 kts 201°
2026-05-06 22:16 33.57725 -84.53520 5894 ft 254 kts 188°
2026-05-06 22:16 33.55952 -84.53008 6399 ft 277 kts 152°
2026-05-06 22:17 33.54624 -84.51296 7063 ft 289 kts 126°
2026-05-06 22:17 33.53593 -84.49184 7533 ft 297 kts 126°
2026-05-06 22:17 33.52559 -84.47027 8152 ft 301 kts 118°
2026-05-06 22:17 33.52166 -84.44498 8607 ft 321 kts 85°
2026-05-06 22:18 33.52895 -84.41972 9221 ft 325 kts 52°
2026-05-06 22:18 33.54330 -84.39912 9798 ft 324 kts 47°
2026-05-06 22:18 33.55755 -84.37756 10248 ft 336 kts 50°
2026-05-06 22:18 33.57205 -84.35432 10432 ft 360 kts 51°
2026-05-06 22:19 33.58742 -84.32924 10627 ft 384 kts 51°
2026-05-06 22:19 33.60348 -84.30289 11064 ft 397 kts 51°
2026-05-06 22:19 33.61968 -84.27626 11728 ft 403 kts 52°
2026-05-06 22:19 33.63620 -84.24909 12459 ft 408 kts 52°
2026-05-06 22:20 33.65313 -84.22127 13220 ft 413 kts 52°
2026-05-06 22:20 33.67041 -84.19289 13920 ft 419 kts 52°
2026-05-06 22:20 33.68744 -84.16492 14608 ft 423 kts 51°
2026-05-06 22:20 33.70488 -84.13629 15316 ft 427 kts 51°
2026-05-06 22:21 33.72272 -84.10700 16040 ft 431 kts 51°
2026-05-06 22:21 33.74049 -84.07779 16731 ft 435 kts 51°
2026-05-06 22:21 33.75841 -84.04833 17449 ft 440 kts 50°
2026-05-06 22:21 33.77574 -84.01982 18142 ft 445 kts 50°
2026-05-06 22:22 33.79410 -83.98959 18794 ft 449 kts 50°
2026-05-06 22:22 33.81257 -83.95914 19454 ft 453 kts 49°
2026-05-06 22:22 33.83121 -83.92839 20055 ft 458 kts 49°
2026-05-06 22:22 33.85008 -83.89724 20694 ft 463 kts 49°
2026-05-06 22:23 33.86911 -83.86578 21326 ft 467 kts 49°
2026-05-06 22:23 33.88827 -83.83408 21969 ft 471 kts 49°
2026-05-06 22:23 33.90734 -83.80249 22599 ft 475 kts 49°
2026-05-06 22:23 33.92691 -83.77007 23203 ft 480 kts 48°
2026-05-06 22:24 33.94658 -83.73746 23755 ft 484 kts 48°
2026-05-06 22:24 33.96652 -83.70452 24254 ft 488 kts 48°
2026-05-06 22:24 33.98672 -83.67160 24761 ft 491 kts 47°
2026-05-06 22:24 34.00716 -83.63845 25269 ft 494 kts 47°
2026-05-06 22:25 34.02772 -83.60513 25752 ft 497 kts 48°
2026-05-06 22:25 34.04841 -83.57153 26232 ft 501 kts 48°
2026-05-06 22:25 34.06922 -83.53764 26630 ft 505 kts 48°
2026-05-06 22:25 34.09013 -83.50352 27125 ft 507 kts 49°
2026-05-06 22:26 34.11095 -83.46945 27629 ft 509 kts 49°
2026-05-06 22:26 34.13198 -83.43500 28056 ft 511 kts 49°
2026-05-06 22:26 34.15316 -83.40029 28432 ft 515 kts 49°
2026-05-06 22:26 34.17463 -83.36559 28753 ft 518 kts 48°
2026-05-06 22:27 34.19654 -83.33078 29097 ft 522 kts 47°
2026-05-06 22:27 34.21867 -83.29588 29469 ft 524 kts 47°
2026-05-06 22:27 34.24090 -83.26084 29845 ft 526 kts 48°
2026-05-06 22:27 34.26315 -83.22566 30164 ft 529 kts 48°
2026-05-06 22:28 34.28548 -83.19023 30440 ft 531 kts 48°
2026-05-06 22:28 34.30792 -83.15451 30712 ft 534 kts 48°
2026-05-06 22:28 34.33046 -83.11853 30930 ft 537 kts 48°
2026-05-06 22:28 34.35305 -83.08242 31179 ft 539 kts 48°
2026-05-06 22:29 34.37567 -83.04621 31427 ft 541 kts 48°
2026-05-06 22:29 34.39839 -83.00981 31666 ft 542 kts 48°
2026-05-06 22:29 34.42111 -82.97337 31880 ft 544 kts 48°
2026-05-06 22:29 34.44399 -82.93665 32082 ft 546 kts 48°
2026-05-06 22:30 34.46692 -82.89981 32274 ft 547 kts 48°
2026-05-06 22:30 34.48958 -82.86336 32529 ft 547 kts 48°
2026-05-06 22:30 34.51250 -82.82645 32833 ft 546 kts 48°
2026-05-06 22:30 34.53531 -82.78968 33149 ft 546 kts 48°
2026-05-06 22:31 34.55812 -82.75286 33390 ft 546 kts 48°
2026-05-06 22:31 34.58097 -82.71597 33667 ft 546 kts 48°
2026-05-06 22:31 34.60376 -82.67914 33954 ft 546 kts 48°
2026-05-06 22:31 34.61921 -82.65415 34132 ft 546 kts 48°
2026-05-06 22:32 34.64174 -82.61769 34362 ft 546 kts 48°
2026-05-06 22:32 34.66455 -82.58074 34597 ft 547 kts 47°
2026-05-06 22:32 34.68730 -82.54383 34819 ft 547 kts 47°
2026-05-06 22:32 34.71013 -82.50676 35051 ft 547 kts 47°
2026-05-06 22:33 34.73291 -82.46972 35301 ft 547 kts 47°
2026-05-06 22:33 34.75572 -82.43259 35541 ft 547 kts 47°
2026-05-06 22:33 34.80136 -82.35827 35753 ft 555 kts 46°
2026-05-06 22:34 34.82440 -82.32065 36044 ft 554 kts 46°
2026-05-06 22:34 34.84737 -82.28306 36323 ft 553 kts 46°
2026-05-06 22:34 34.87030 -82.24552 36533 ft 553 kts 46°
2026-05-06 22:34 34.89326 -82.20790 36736 ft 553 kts 45°
2026-05-06 22:35 34.91623 -82.17025 36890 ft 555 kts 45°
2026-05-06 22:35 34.93963 -82.13187 36946 ft 557 kts 45°
2026-05-06 22:35 34.98543 -82.05657 36964 ft 555 kts 45°
2026-05-06 22:36 35.03148 -81.98071 36970 ft 559 kts 45°
2026-05-06 22:36 35.07785 -81.90419 36972 ft 562 kts 45°
2026-05-06 22:37 35.12439 -81.82719 36976 ft 565 kts 45°
2026-05-06 22:37 35.17107 -81.74975 36975 ft 568 kts 45°
2026-05-06 22:38 35.21812 -81.67159 37015 ft 573 kts 45°
2026-05-06 22:38 35.26569 -81.59241 36968 ft 580 kts 45°
2026-05-06 22:39 35.31354 -81.51248 36947 ft 584 kts 46°
2026-05-06 22:39 35.36158 -81.43205 36964 ft 586 kts 46°
2026-05-06 22:40 35.40972 -81.35127 36977 ft 587 kts 46°
2026-05-06 22:40 35.45787 -81.27030 36990 ft 588 kts 46°
2026-05-06 22:41 35.52992 -81.14879 36966 ft 585 kts 46°
2026-05-06 22:42 35.57769 -81.06795 36968 ft 583 kts 46°
2026-05-06 22:42 35.62521 -80.98742 36979 ft 581 kts 46°
2026-05-06 22:43 35.67255 -80.90705 36979 ft 579 kts 46°
2026-05-06 22:43 35.71968 -80.82680 36990 ft 577 kts 46°
2026-05-06 22:44 35.76650 -80.74689 36974 ft 576 kts 46°
2026-05-06 22:44 35.81323 -80.66697 36965 ft 575 kts 46°
2026-05-06 22:45 35.85987 -80.58702 36957 ft 574 kts 46°
2026-05-06 22:45 35.90655 -80.50683 36949 ft 577 kts 46°
2026-05-06 22:46 35.95352 -80.42613 36958 ft 581 kts 45°
2026-05-06 22:46 36.00066 -80.34480 36947 ft 584 kts 46°
2026-05-06 22:47 36.04777 -80.26287 36949 ft 585 kts 46°
2026-05-06 22:47 36.09504 -80.18088 36936 ft 586 kts 46°
2026-05-06 22:48 36.14229 -80.09876 36935 ft 585 kts 46°
2026-05-06 22:48 36.18948 -80.01666 36968 ft 583 kts 46°
2026-05-06 22:49 36.23712 -79.93571 36963 ft 580 kts 45°
2026-05-06 22:49 36.28487 -79.85528 36953 ft 579 kts 45°
2026-05-06 22:50 36.33240 -79.77475 36964 ft 579 kts 45°
2026-05-06 22:50 36.37976 -79.69401 36953 ft 578 kts 45°
2026-05-06 22:51 36.47066 -79.53836 36921 ft 577 kts 45°
2026-05-06 22:52 36.51775 -79.45750 36915 ft 577 kts 45°
2026-05-06 22:52 36.56476 -79.37660 36940 ft 577 kts 45°
2026-05-06 22:53 36.61169 -79.29558 36921 ft 577 kts 45°
2026-05-06 22:53 36.65850 -79.21461 36934 ft 576 kts 45°
2026-05-06 22:54 36.70524 -79.13358 36930 ft 575 kts 45°
2026-05-06 22:54 36.75158 -79.05304 36911 ft 576 kts 45°
2026-05-06 22:55 36.79818 -78.97184 36920 ft 575 kts 45°
2026-05-06 22:55 36.84460 -78.89072 36919 ft 574 kts 45°
2026-05-06 22:56 36.89075 -78.80935 36914 ft 573 kts 45°
2026-05-06 22:56 36.93670 -78.72801 36940 ft 573 kts 45°
2026-05-06 22:57 36.98267 -78.64655 36926 ft 572 kts 45°
2026-05-06 22:57 37.02847 -78.56521 36930 ft 571 kts 45°
2026-05-06 22:58 37.07412 -78.48394 36919 ft 570 kts 45°
2026-05-06 22:58 37.11969 -78.40263 36916 ft 569 kts 45°
2026-05-06 22:59 37.16517 -78.32128 36928 ft 570 kts 46°
2026-05-06 22:59 37.20987 -78.23893 36914 ft 576 kts 51°
2026-05-06 23:00 37.24909 -78.15076 36923 ft 580 kts 53°
2026-05-06 23:00 37.28756 -78.06157 36924 ft 581 kts 53°
2026-05-06 23:01 37.32660 -77.97241 36916 ft 582 kts 53°
2026-05-06 23:01 37.36583 -77.88334 36930 ft 583 kts 53°
2026-05-06 23:02 37.40497 -77.79404 36921 ft 583 kts 53°
2026-05-06 23:02 37.44415 -77.70484 36919 ft 582 kts 53°
2026-05-06 23:03 37.48327 -77.61574 36917 ft 581 kts 53°
2026-05-06 23:03 37.52222 -77.52669 36919 ft 579 kts 53°
2026-05-06 23:04 37.56097 -77.43778 36908 ft 579 kts 53°
2026-05-06 23:04 37.59959 -77.34894 36910 ft 578 kts 53°
2026-05-06 23:05 37.63817 -77.25995 36907 ft 578 kts 53°
2026-05-06 23:05 37.67926 -77.17397 36939 ft 560 kts 41°
2026-05-06 23:05 37.70507 -77.13806 36904 ft 547 kts 33°
2026-05-06 23:06 37.73353 -77.10700 36916 ft 535 kts 26°
2026-05-06 23:06 37.76401 -77.08127 36900 ft 517 kts 17°
2026-05-06 23:06 37.79559 -77.06001 36910 ft 515 kts 15°
2026-05-06 23:07 37.85864 -77.01790 36912 ft 516 kts 16°
2026-05-06 23:07 37.92190 -76.97456 36908 ft 518 kts 17°
2026-05-06 23:08 37.98529 -76.93043 36913 ft 520 kts 17°
2026-05-06 23:08 38.04881 -76.88606 36908 ft 522 kts 17°
2026-05-06 23:09 38.11252 -76.84153 36878 ft 522 kts 17°
2026-05-06 23:09 38.17619 -76.79698 36901 ft 523 kts 17°
2026-05-06 23:10 38.23970 -76.75117 36899 ft 530 kts 21°
2026-05-06 23:10 38.27018 -76.72389 36868 ft 542 kts 27°
2026-05-06 23:10 38.29915 -76.69273 36857 ft 547 kts 30°
2026-05-06 23:11 38.35629 -76.62871 36895 ft 547 kts 30°
2026-05-06 23:11 38.41407 -76.56551 36890 ft 547 kts 29°
2026-05-06 23:12 38.47202 -76.50222 36854 ft 551 kts 31°
2026-05-06 23:12 38.52820 -76.43491 36871 ft 554 kts 33°
2026-05-06 23:13 38.58317 -76.36676 36895 ft 555 kts 33°
2026-05-06 23:13 38.63884 -76.29832 36898 ft 555 kts 33°
2026-05-06 23:14 38.69472 -76.23025 36888 ft 555 kts 33°
2026-05-06 23:14 38.75072 -76.16211 36881 ft 556 kts 33°
2026-05-06 23:15 38.80680 -76.09368 36881 ft 557 kts 33°
2026-05-06 23:15 38.86287 -76.02500 36888 ft 557 kts 33°
2026-05-06 23:16 38.91890 -75.95620 36880 ft 558 kts 33°
2026-05-06 23:16 38.97495 -75.88722 36916 ft 559 kts 32°
2026-05-06 23:17 39.03112 -75.81797 36869 ft 559 kts 33°
2026-05-06 23:17 39.08729 -75.74850 36870 ft 559 kts 33°
2026-05-06 23:18 39.14333 -75.67906 36891 ft 559 kts 33°
2026-05-06 23:18 39.19944 -75.60938 36863 ft 560 kts 33°
2026-05-06 23:19 39.25553 -75.53956 36852 ft 560 kts 33°
2026-05-06 23:19 39.31163 -75.46956 36859 ft 560 kts 33°
2026-05-06 23:20 39.36759 -75.39956 36844 ft 561 kts 33°
2026-05-06 23:20 39.42334 -75.32968 36858 ft 561 kts 33°
2026-05-06 23:21 39.47930 -75.25936 36856 ft 561 kts 33°
2026-05-06 23:21 39.53526 -75.18886 36905 ft 561 kts 33°
2026-05-06 23:22 39.59121 -75.11824 36855 ft 562 kts 33°
2026-05-06 23:22 39.64717 -75.04741 36823 ft 562 kts 33°
2026-05-06 23:23 39.70294 -74.97661 36863 ft 560 kts 33°
2026-05-06 23:23 39.75858 -74.90586 36845 ft 560 kts 33°
2026-05-06 23:24 39.81419 -74.83500 36843 ft 559 kts 33°
2026-05-06 23:24 39.86971 -74.76405 36857 ft 559 kts 33°
2026-05-06 23:25 39.92518 -74.69303 36884 ft 560 kts 33°
2026-05-06 23:25 39.98083 -74.62162 36837 ft 562 kts 33°
2026-05-06 23:26 40.03606 -74.55052 36832 ft 562 kts 33°
2026-05-06 23:26 40.09160 -74.47884 36902 ft 562 kts 33°
2026-05-06 23:27 40.14712 -74.40702 36884 ft 563 kts 33°
2026-05-06 23:27 40.20288 -74.33482 36839 ft 564 kts 34°
2026-05-06 23:28 40.25866 -74.26232 36858 ft 564 kts 34°
2026-05-06 23:28 40.31428 -74.18984 36874 ft 565 kts 34°
2026-05-06 23:29 40.36995 -74.11712 36864 ft 565 kts 34°
2026-05-06 23:29 40.42558 -74.04427 36851 ft 565 kts 34°
2026-05-06 23:30 40.48114 -73.97135 36836 ft 565 kts 35°
2026-05-06 23:30 40.53661 -73.89832 36828 ft 564 kts 35°
2026-05-06 23:31 40.59194 -73.82530 36729 ft 560 kts 35°
2026-05-06 23:31 40.61005 -73.80132 36559 ft 554 kts 35°
2026-05-06 23:31 40.63704 -73.76556 36132 ft 549 kts 35°
2026-05-06 23:31 40.66384 -73.72855 35423 ft 553 kts 38°
2026-05-06 23:32 40.68925 -73.69132 34767 ft 555 kts 39°
2026-05-06 23:32 40.71476 -73.65306 34104 ft 555 kts 39°
2026-05-06 23:32 40.74026 -73.61482 33372 ft 555 kts 40°
2026-05-06 23:32 40.76590 -73.57672 32671 ft 553 kts 40°
2026-05-06 23:33 40.79155 -73.53896 31952 ft 552 kts 40°
2026-05-06 23:33 40.81729 -73.50125 31324 ft 552 kts 40°
2026-05-06 23:33 40.84299 -73.46357 30680 ft 551 kts 40°
2026-05-06 23:33 40.86854 -73.42595 30057 ft 550 kts 41°
2026-05-06 23:34 40.89402 -73.38835 29320 ft 548 kts 41°
2026-05-06 23:34 40.91933 -73.35092 28632 ft 545 kts 41°
2026-05-06 23:34 40.94455 -73.31358 27917 ft 542 kts 41°
2026-05-06 23:34 40.96953 -73.27655 27217 ft 539 kts 41°
2026-05-06 23:35 40.99410 -73.24011 26566 ft 535 kts 41°
2026-05-06 23:35 41.01879 -73.20344 25933 ft 531 kts 41°
2026-05-06 23:35 41.04327 -73.16704 25284 ft 528 kts 41°
2026-05-06 23:35 41.06759 -73.13086 24769 ft 522 kts 41°
2026-05-06 23:36 41.09148 -73.09521 24424 ft 512 kts 41°
2026-05-06 23:36 41.11521 -73.05977 24093 ft 503 kts 41°
2026-05-06 23:36 41.13792 -73.02584 23762 ft 494 kts 40°
2026-05-06 23:36 41.16058 -72.99201 23484 ft 486 kts 41°
2026-05-06 23:37 41.18287 -72.95868 23104 ft 479 kts 41°
2026-05-06 23:37 41.20470 -72.92589 22811 ft 469 kts 43°
2026-05-06 23:37 41.22347 -72.89115 22835 ft 460 kts 56°
2026-05-06 23:37 41.23816 -72.85335 22841 ft 460 kts 59°
2026-05-06 23:38 41.25198 -72.81503 22839 ft 460 kts 60°
2026-05-06 23:38 41.26573 -72.77666 22841 ft 460 kts 60°
2026-05-06 23:38 41.27967 -72.73841 22847 ft 460 kts 59°
2026-05-06 23:38 41.29383 -72.70031 22851 ft 460 kts 59°
2026-05-06 23:39 41.30802 -72.66270 22885 ft 460 kts 59°
2026-05-06 23:39 41.32241 -72.62482 22859 ft 459 kts 59°
2026-05-06 23:39 41.33681 -72.58698 22821 ft 457 kts 59°
2026-05-06 23:39 41.35113 -72.54933 22852 ft 455 kts 59°
2026-05-06 23:40 41.36538 -72.51180 22842 ft 453 kts 59°
2026-05-06 23:40 41.37958 -72.47432 22843 ft 452 kts 59°
2026-05-06 23:40 41.39368 -72.43704 22840 ft 451 kts 59°
2026-05-06 23:40 41.40778 -72.39971 22853 ft 450 kts 59°
2026-05-06 23:41 41.42182 -72.36250 22855 ft 450 kts 59°
2026-05-06 23:41 41.43585 -72.32526 22853 ft 450 kts 59°
2026-05-06 23:41 41.44989 -72.28793 22850 ft 451 kts 59°
2026-05-06 23:41 41.46398 -72.25044 22825 ft 452 kts 59°
2026-05-06 23:42 41.47808 -72.21288 22844 ft 453 kts 59°
2026-05-06 23:42 41.49206 -72.17519 22843 ft 454 kts 60°
2026-05-06 23:42 41.50592 -72.13727 22843 ft 455 kts 60°
2026-05-06 23:42 41.51976 -72.09926 22841 ft 456 kts 60°
2026-05-06 23:43 41.53363 -72.06122 22842 ft 456 kts 60°
2026-05-06 23:43 41.54713 -72.02416 22828 ft 447 kts 60°
2026-05-06 23:43 41.56043 -71.98706 22815 ft 440 kts 63°
2026-05-06 23:43 41.57207 -71.94930 22840 ft 439 kts 66°
2026-05-06 23:44 41.58296 -71.91134 22859 ft 438 kts 66°
2026-05-06 23:44 41.59395 -71.87353 22796 ft 436 kts 66°
2026-05-06 23:44 41.60498 -71.83615 22394 ft 439 kts 66°
2026-05-06 23:44 41.61624 -71.79809 21885 ft 439 kts 67°
2026-05-06 23:45 41.62739 -71.76037 21347 ft 428 kts 67°
2026-05-06 23:45 41.63803 -71.72424 20742 ft 412 kts 68°
2026-05-06 23:45 41.64841 -71.68902 20122 ft 404 kts 68°
2026-05-06 23:45 41.65869 -71.65410 19518 ft 403 kts 69°
2026-05-06 23:46 41.66895 -71.61919 18925 ft 404 kts 69°
2026-05-06 23:46 41.67921 -71.58419 18277 ft 403 kts 70°
2026-05-06 23:46 41.68936 -71.54953 17488 ft 398 kts 70°
2026-05-06 23:46 41.69935 -71.51533 16716 ft 393 kts 70°
2026-05-06 23:47 41.70926 -71.48141 15979 ft 388 kts 70°
2026-05-06 23:47 41.71901 -71.44799 15256 ft 383 kts 70°
2026-05-06 23:47 41.72931 -71.41536 14532 ft 378 kts 63°
2026-05-06 23:47 41.74215 -71.38506 13967 ft 369 kts 58°
2026-05-06 23:48 41.75557 -71.35589 13503 ft 359 kts 58°
2026-05-06 23:48 41.76844 -71.32703 13033 ft 363 kts 59°
2026-05-06 23:48 41.78111 -71.29772 12587 ft 364 kts 60°
2026-05-06 23:48 41.79366 -71.26831 12137 ft 361 kts 60°
2026-05-06 23:49 41.80593 -71.23946 11707 ft 366 kts 60°
2026-05-06 23:49 41.81861 -71.20963 11281 ft 369 kts 60°
2026-05-06 23:49 41.83125 -71.17990 11027 ft 363 kts 60°
2026-05-06 23:49 41.84358 -71.15087 10989 ft 355 kts 60°
2026-05-06 23:50 41.85574 -71.12224 11024 ft 352 kts 60°
2026-05-06 23:50 41.87979 -71.06641 10763 ft 340 kts 59°
2026-05-06 23:50 41.89153 -71.03930 10478 ft 336 kts 59°
2026-05-06 23:51 41.90320 -71.01234 10205 ft 332 kts 59°
2026-05-06 23:51 41.91469 -70.98574 9944 ft 329 kts 59°
2026-05-06 23:51 41.92618 -70.95909 9675 ft 327 kts 59°
2026-05-06 23:51 41.93751 -70.93277 9380 ft 324 kts 59°
2026-05-06 23:52 41.94871 -70.90674 9135 ft 320 kts 59°
2026-05-06 23:52 41.95981 -70.88090 9049 ft 318 kts 59°
2026-05-06 23:52 41.97098 -70.85490 9020 ft 324 kts 59°
2026-05-06 23:52 41.98232 -70.82848 8986 ft 327 kts 59°
2026-05-06 23:53 41.99363 -70.80207 8982 ft 325 kts 59°
2026-05-06 23:53 42.00489 -70.77578 9006 ft 323 kts 59°
2026-05-06 23:53 42.01699 -70.75060 8977 ft 318 kts 49°
2026-05-06 23:53 42.03158 -70.72853 8990 ft 315 kts 43°
2026-05-06 23:54 42.04690 -70.70708 8904 ft 321 kts 43°
2026-05-06 23:54 42.06226 -70.68505 8616 ft 324 kts 45°
2026-05-06 23:54 42.07738 -70.66270 8284 ft 321 kts 45°
2026-05-06 23:54 42.09227 -70.64043 7975 ft 318 kts 45°
2026-05-06 23:55 42.10711 -70.62106 7615 ft 306 kts 28°
2026-05-06 23:55 42.12614 -70.61053 7293 ft 288 kts
2026-05-06 23:55 42.14569 -70.60544 7001 ft 286 kts
2026-05-06 23:55 42.16504 -70.60021 6722 ft 288 kts
2026-05-06 23:56 42.18468 -70.59482 6416 ft 288 kts
2026-05-06 23:56 42.20431 -70.58939 6116 ft 287 kts
2026-05-06 23:56 42.22381 -70.58397 5778 ft 285 kts
2026-05-06 23:56 42.24316 -70.57857 5444 ft 283 kts
2026-05-06 23:57 42.26241 -70.57320 5130 ft 281 kts
2026-05-06 23:57 42.28120 -70.56792 5043 ft 270 kts
2026-05-06 23:57 42.29953 -70.56279 5006 ft 270 kts
2026-05-06 23:57 42.31807 -70.55964 4990 ft 266 kts 347°
2026-05-06 23:58 42.33482 -70.56803 5010 ft 252 kts 317°
2026-05-06 23:58 42.34752 -70.58352 5010 ft 245 kts 309°
2026-05-06 23:58 42.35980 -70.59976 5024 ft 249 kts 310°
2026-05-06 23:58 42.37233 -70.61622 4998 ft 252 kts 310°
2026-05-06 23:59 42.38495 -70.63284 4992 ft 253 kts 310°
2026-05-06 23:59 42.39751 -70.64939 4942 ft 252 kts 310°
2026-05-06 23:59 42.41003 -70.66587 4663 ft 249 kts 310°
2026-05-06 23:59 42.42233 -70.68207 4384 ft 245 kts 310°
2026-05-07 00:00 42.43446 -70.69803 4087 ft 243 kts 310°
2026-05-07 00:00 42.44659 -70.71401 3729 ft 243 kts 310°
2026-05-07 00:00 42.45868 -70.72999 3396 ft 243 kts 310°
2026-05-07 00:00 42.46643 -70.74021 3165 ft 243 kts 310°
2026-05-07 00:01 42.48232 -70.76114 2992 ft 230 kts 310°
2026-05-07 00:01 42.49356 -70.77594 2981 ft 223 kts 309°
2026-05-07 00:01 42.50433 -70.79013 2978 ft 208 kts 309°
2026-05-07 00:01 42.51437 -70.80333 2980 ft 196 kts 308°
2026-05-07 00:02 42.52466 -70.81397 2960 ft 204 kts 332°
2026-05-07 00:02 42.53932 -70.81540 2990 ft 221 kts 360°
2026-05-07 00:02 42.55427 -70.81447 2969 ft 215 kts 340°
2026-05-07 00:02 42.56671 -70.82333 2968 ft 193 kts 305°
2026-05-07 00:03 42.57280 -70.83809 2965 ft 174 kts 274°
2026-05-07 00:03 42.57045 -70.85351 2964 ft 168 kts 238°
2026-05-07 00:03 42.56266 -70.86542 2984 ft 173 kts 229°
2026-05-07 00:03 42.55419 -70.87676 3010 ft 168 kts 228°
2026-05-07 00:04 42.54584 -70.88775 2975 ft 165 kts 228°
2026-05-07 00:04 42.53790 -70.89863 2967 ft 161 kts 233°
2026-05-07 00:04 42.53097 -70.91071 2983 ft 164 kts 236°
2026-05-07 00:04 42.52366 -70.92263 2964 ft 167 kts 223°
2026-05-07 00:05 42.51333 -70.92983 2948 ft 165 kts 211°
2026-05-07 00:05 42.50315 -70.93663 2738 ft 162 kts 211°
2026-05-07 00:05 42.49292 -70.94264 2527 ft 158 kts 207°
2026-05-07 00:05 42.48268 -70.94790 2349 ft 157 kts 206°
2026-05-07 00:06 42.47240 -70.95297 2120 ft 159 kts 205°
2026-05-07 00:06 42.46202 -70.95803 1894 ft 155 kts 204°
2026-05-07 00:06 42.45197 -70.96292 1602 ft 149 kts 202°
2026-05-07 00:06 42.44269 -70.96722 1393 ft 137 kts 200°
2026-05-07 00:07 42.43388 -70.97114 1360 ft 129 kts 202°
2026-05-07 00:07 42.42550 -70.97522 1271 ft 126 kts 202°
2026-05-07 00:07 42.41740 -70.97950 931 ft 124 kts 201°
2026-05-07 00:07 42.40919 -70.98338 766 ft 125 kts 201°
2026-05-07 00:08 42.40122 -70.98760 586 ft 122 kts 201°
2026-05-07 00:08 42.39338 -70.99134 481 ft 115 kts 199°
2026-05-07 00:08 42.38592 -70.99476 268 ft 115 kts 202°
2026-05-07 00:08 42.37856 -70.99850 123 ft 110 kts 200°
2026-05-07 00:09 42.37115 -71.00212 29 ft 117 kts 199°
2026-05-07 00:09 42.36537 -71.00488 30 ft 64 kts 199°
2026-05-07 00:09 42.36081 -71.00707 28 ft 70 kts 199°
2026-05-07 00:09 42.35765 -71.00861 29 ft 37 kts 200°
2026-05-07 00:10 42.35536 -71.00978 27 ft 39 kts 199°
2026-05-07 00:10 42.35389 -71.01136 28 ft 16 kts 281°
2026-05-07 00:10 42.35426 -71.01277 28 ft 16 kts 291°
2026-05-07 00:10 42.35509 -71.01344 28 ft 16 kts 12°
2026-05-07 00:11 42.35617 -71.01315 28 ft 16 kts
2026-05-07 00:11 42.35723 -71.01309 28 ft 16 kts 327°
2026-05-07 00:11 42.35740 -71.01334 28 ft 0 kts 305°
2026-05-07 00:12 42.35743 -71.01340 28 ft 7 kts 302°
2026-05-07 00:12 42.35771 -71.01421 30 ft 10 kts 291°
2026-05-07 00:12 42.35794 -71.01511 29 ft 15 kts 288°
2026-05-07 00:13 42.35830 -71.01691 28 ft 20 kts 282°
2026-05-07 00:13 42.35865 -71.01876 28 ft 20 kts 295°
2026-05-07 00:13 42.35936 -71.02041 28 ft 20 kts 301°
2026-05-07 00:13 42.36008 -71.02207 28 ft 20 kts 300°
2026-05-07 00:14 42.36105 -71.02335 28 ft 18 kts 328°
2026-05-07 00:14 42.36151 -71.02426 28 ft 0 kts 289°